TimeEDT,TemperatureF,Dew PointF,Humidity,Sea Level PressureIn,VisibilityMPH,Wind Direction,Wind SpeedMPH,Gust SpeedMPH,PrecipitationIn,Events,Conditions,WindDirDegrees,DateUTC
12:54 AM,55.9,53.1,90,30.11,10.0,Calm,Calm,-,N/A,,Overcast,0,2013-09-27 04:54:00
1:50 AM,55.4,53.6,94,30.12,10.0,Calm,Calm,-,N/A,,Overcast,0,2013-09-27 05:50:00
1:54 AM,55.9,54.0,93,30.12,10.0,Calm,Calm,-,N/A,,Overcast,0,2013-09-27 05:54:00
2:04 AM,55.4,53.6,94,30.12,10.0,Calm,Calm,-,N/A,,Overcast,0,2013-09-27 06:04:00
2:54 AM,55.9,54.0,93,30.12,10.0,Calm,Calm,-,N/A,,Overcast,0,2013-09-27 06:54:00
3:16 AM,55.4,53.6,94,30.12,10.0,Calm,Calm,-,N/A,,Overcast,0,2013-09-27 07:16:00
3:54 AM,55.9,54.0,93,30.12,10.0,Calm,Calm,-,N/A,,Overcast,0,2013-09-27 07:54:00
4:29 AM,55.4,55.4,100,30.13,10.0,Calm,Calm,-,N/A,,Overcast,0,2013-09-27 08:29:00
5:54 AM,57.0,55.0,93,30.14,10.0,Calm,Calm,-,N/A,,Overcast,0,2013-09-27 09:54:00
6:54 AM,55.9,55.0,97,30.17,9.0,Calm,Calm,-,N/A,,Overcast,0,2013-09-27 10:54:00
7:54 AM,57.9,55.9,93,30.19,10.0,Calm,Calm,-,N/A,,Overcast,0,2013-09-27 11:54:00
8:54 AM,61.0,55.0,81,30.20,10.0,NNE,3.5,-,N/A,,Mostly Cloudy,20,2013-09-27 12:54:00
9:54 AM,64.0,55.0,73,30.21,10.0,North,5.8,-,N/A,,Scattered Clouds,360,2013-09-27 13:54:00
10:54 AM,66.0,52.0,60,30.22,10.0,NNE,6.9,-,N/A,,Mostly Cloudy,30,2013-09-27 14:54:00
11:54 AM,66.9,50.0,54,30.22,10.0,Variable,6.9,-,N/A,,Mostly Cloudy,0,2013-09-27 15:54:00
12:54 PM,68.0,48.9,50,30.21,10.0,ENE,6.9,-,N/A,,Mostly Cloudy,70,2013-09-27 16:54:00
1:54 PM,69.1,48.9,49,30.19,10.0,NNE,6.9,-,N/A,,Overcast,20,2013-09-27 17:54:00
2:54 PM,70.0,48.9,47,30.18,10.0,Calm,Calm,-,N/A,,Mostly Cloudy,0,2013-09-27 18:54:00
3:54 PM,66.9,48.9,52,30.18,10.0,ENE,5.8,-,N/A,,Overcast,70,2013-09-27 19:54:00
4:54 PM,66.9,48.9,52,30.19,10.0,ENE,5.8,-,N/A,,Overcast,70,2013-09-27 20:54:00
5:54 PM,66.0,50.0,56,30.20,10.0,ENE,3.5,-,N/A,,Overcast,60,2013-09-27 21:54:00
6:54 PM,63.0,53.1,70,30.21,10.0,ESE,3.5,-,N/A,,Overcast,110,2013-09-27 22:54:00
7:54 PM,62.1,54.0,75,30.22,10.0,Calm,Calm,-,N/A,,Overcast,0,2013-09-27 23:54:00
8:54 PM,61.0,53.1,75,30.23,10.0,Calm,Calm,-,N/A,,Overcast,0,2013-09-28 00:54:00
9:54 PM,57.0,53.1,87,30.25,10.0,Calm,Calm,-,N/A,,Clear,0,2013-09-28 01:54:00
10:54 PM,54.0,52.0,93,30.26,10.0,Calm,Calm,-,N/A,,Scattered Clouds,0,2013-09-28 02:54:00
11:54 PM,55.9,53.1,90,30.27,10.0,Calm,Calm,-,N/A,,Overcast,0,2013-09-28 03:54:00